User: anonymous   Login
Location: Unspecified
(0.0000°N, 0.0000°E)
Time: 18:53:46
(UTC+00:00)
Language:

DNEPR OBJECT X - Orbit

View from above orbital plane
View from above orbital plane
View from above satellite
View from above satellite

Ground track
Ground track

The orbit data is extracted from the following two-line orbital elements,

1 39437U 13066X   17084.81419337 +.00014101 +00000-0 +53445-3 0  9999
2 39437 097.7092 183.1744 0011877 051.2236 309.0061 15.26942829182337
Epoch (UTC): 25 March 2017 19:32:26
Eccentricity: 0.0011877
inclination: 97.7092°
perigee height: 477 km
apogee height: 493 km
right ascension of ascending node: 183.1744°
argument of perigee: 51.2236°
revolutions per day: 15.26942829
mean anomaly at epoch: 309.0061°
orbit number at epoch: 18233

The dashed part of the orbit path shows where the satellite is in the earth's shadow,  

DLR